SKW5397 KLAX-KSLC

Flight info

Callsign SKW5397
Flight time N/A
Altitude 35000
Route OSHNN1 BEALE Q70 BLIPP Q842 WINEN MLF PITTT2
Aircraft E75L/M-SDE3GILORVW/S

Departure

Time N/A
Airport Los Angeles International Airport (KLAX)

Arrival

Time 2026-05-08 06:54
Airport Salt Lake City International Airport (KSLC)
Time Latitude Longitude Altitude Speed Heading
2026-05-08 06:35 39.94461 -112.29127 23425 ft 391 kts 13°
2026-05-08 06:35 39.97078 -112.28245 22995 ft 389 kts 13°
2026-05-08 06:36 39.99707 -112.27359 22569 ft 387 kts 13°
2026-05-08 06:36 40.02314 -112.26479 22138 ft 384 kts 13°
2026-05-08 06:36 40.04908 -112.25603 21711 ft 382 kts 12°
2026-05-08 06:36 40.07480 -112.24733 21283 ft 379 kts 12°
2026-05-08 06:37 40.10034 -112.23868 20858 ft 377 kts 12°
2026-05-08 06:37 40.12550 -112.23016 20447 ft 374 kts 12°
2026-05-08 06:37 40.15065 -112.22163 20026 ft 371 kts 12°
2026-05-08 06:37 40.17568 -112.21314 19610 ft 370 kts 12°
2026-05-08 06:38 40.20028 -112.20479 19202 ft 368 kts 12°
2026-05-08 06:38 40.22505 -112.19637 18785 ft 366 kts 11°
2026-05-08 06:38 40.24981 -112.18795 18367 ft 363 kts 11°
2026-05-08 06:38 40.27408 -112.17969 17983 ft 361 kts 11°
2026-05-08 06:39 40.29817 -112.17149 17589 ft 359 kts 11°
2026-05-08 06:39 40.32238 -112.16325 17204 ft 357 kts 11°
2026-05-08 06:39 40.34662 -112.15499 16793 ft 356 kts 11°
2026-05-08 06:39 40.37074 -112.14677 16405 ft 355 kts 11°
2026-05-08 06:40 40.39472 -112.13859 16009 ft 354 kts 11°
2026-05-08 06:40 40.41833 -112.13052 15609 ft 352 kts 11°
2026-05-08 06:40 40.44224 -112.12235 15218 ft 352 kts 11°
2026-05-08 06:40 40.46589 -112.11427 14817 ft 351 kts 11°
2026-05-08 06:41 40.48955 -112.10620 14424 ft 349 kts 10°
2026-05-08 06:41 40.51289 -112.09827 14014 ft 348 kts 10°
2026-05-08 06:41 40.53626 -112.09034 13602 ft 349 kts 10°
2026-05-08 06:41 40.55989 -112.08348 13177 ft 341 kts
2026-05-08 06:42 40.58337 -112.08157 12808 ft 336 kts 359°
2026-05-08 06:42 40.60667 -112.07998 12428 ft 334 kts 359°
2026-05-08 06:42 40.62977 -112.07848 12057 ft 331 kts 356°
2026-05-08 06:42 40.65250 -112.08038 12002 ft 326 kts 351°
2026-05-08 06:43 40.67511 -112.08298 12011 ft 328 kts 351°
2026-05-08 06:43 40.69812 -112.08565 12006 ft 329 kts 351°
2026-05-08 06:43 40.72095 -112.08830 12006 ft 330 kts 351°
2026-05-08 06:43 40.74393 -112.09097 12001 ft 329 kts 351°
2026-05-08 06:44 40.76689 -112.09369 11916 ft 331 kts 351°
2026-05-08 06:44 40.78952 -112.09637 11589 ft 329 kts 351°
2026-05-08 06:44 40.81239 -112.09907 11232 ft 327 kts 351°
2026-05-08 06:44 40.83464 -112.10351 10910 ft 320 kts 343°
2026-05-08 06:45 40.85642 -112.10892 10943 ft 321 kts 348°
2026-05-08 06:45 40.87875 -112.11103 10922 ft 323 kts 354°
2026-05-08 06:45 40.90139 -112.11197 10936 ft 323 kts 354°
2026-05-08 06:45 40.92358 -112.11277 10908 ft 324 kts 354°
2026-05-08 06:46 40.94569 -112.11349 10704 ft 307 kts 354°
2026-05-08 06:46 40.96647 -112.11415 10491 ft 290 kts 355°
2026-05-08 06:46 40.98609 -112.11472 10264 ft 273 kts 355°
2026-05-08 06:46 41.00422 -112.11517 9996 ft 250 kts 354°
2026-05-08 06:47 41.02122 -112.11541 9832 ft 240 kts 359°
2026-05-08 06:47 41.03662 -112.10738 9596 ft 251 kts 37°
2026-05-08 06:47 41.04689 -112.08832 9382 ft 256 kts 56°
2026-05-08 06:47 41.05502 -112.06766 9172 ft 249 kts 61°
2026-05-08 06:48 41.06071 -112.04594 8921 ft 249 kts 71°
2026-05-08 06:48 41.06063 -112.02344 8664 ft 249 kts 109°
2026-05-08 06:48 41.05037 -112.00603 8482 ft 240 kts 151°
2026-05-08 06:48 41.03478 -112.00098 8450 ft 224 kts 182°
2026-05-08 06:49 41.01927 -112.00047 8274 ft 221 kts 180°
2026-05-08 06:49 41.00426 -111.99932 8008 ft 216 kts 179°
2026-05-08 06:49 40.98924 -111.99784 7731 ft 212 kts 178°
2026-05-08 06:49 40.97480 -111.99628 7458 ft 208 kts 177°
2026-05-08 06:50 40.96026 -111.99463 7173 ft 205 kts 176°
2026-05-08 06:50 40.94633 -111.99303 6910 ft 202 kts 176°
2026-05-08 06:50 40.93241 -111.99142 6645 ft 199 kts 175°
2026-05-08 06:50 40.91905 -111.98985 6463 ft 185 kts 175°
2026-05-08 06:51 40.90669 -111.98841 6163 ft 172 kts 175°
2026-05-08 06:51 40.89511 -111.98706 5908 ft 160 kts 175°
2026-05-08 06:51 40.88442 -111.98583 5697 ft 150 kts 175°
2026-05-08 06:51 40.87415 -111.98463 5511 ft 147 kts 175°
2026-05-08 06:52 40.86384 -111.98344 5331 ft 148 kts 175°
2026-05-08 06:52 40.85360 -111.98225 5144 ft 148 kts 175°
2026-05-08 06:52 40.84343 -111.98113 4974 ft 147 kts 175°
2026-05-08 06:52 40.83318 -111.97998 4828 ft 146 kts 175°
2026-05-08 06:53 40.82310 -111.97877 4638 ft 146 kts 174°
2026-05-08 06:53 40.81303 -111.97762 4397 ft 145 kts 174°
2026-05-08 06:53 40.80310 -111.97644 4234 ft 136 kts 174°
2026-05-08 06:53 40.79513 -111.97554 4226 ft 89 kts 175°
2026-05-08 06:54 40.79041 -111.97498 4226 ft 59 kts 175°
2026-05-08 06:54 40.78679 -111.97472 4226 ft 38 kts 190°
2026-05-08 06:54 40.78474 -111.97555 4228 ft 22 kts 212°
2026-05-08 06:54 40.78468 -111.97649 4229 ft 11 kts 355°
2026-05-08 06:55 40.78554 -111.97659 4228 ft 13 kts 355°
2026-05-08 06:55 40.78657 -111.97670 4226 ft 16 kts 355°
2026-05-08 06:55 40.78752 -111.97716 4226 ft 14 kts 259°
2026-05-08 06:55 40.78745 -111.97839 4226 ft 13 kts 269°
2026-05-08 06:56 40.78740 -111.97966 4227 ft 13 kts 264°
2026-05-08 06:56 40.78732 -111.98086 4227 ft 13 kts 267°
2026-05-08 06:56 40.78710 -111.98143 4226 ft 4 kts 180°
2026-05-08 06:56 40.78678 -111.98138 4226 ft 4 kts 179°
2026-05-08 06:57 40.78645 -111.98134 4226 ft 0 kts 175°
2026-05-08 06:57 40.78642 -111.98134 4226 ft 0 kts 175°